Weather in Guerrero Negro

Mexico     27°57′52″N   114°02′56″W
temp.,
°C
wind,
m/s
gust,
m/s
humid.,
%
clouds,
%
prec.,
mm/h
press.,
hPa
HPBL,
m
16 june, wed
wed1600:00+19wnw2277100 0.0 1013142
03:00+20wsw2274100 0.0 1011120
06:00+20w017454 0.0 1011108
09:00+21wnw217175 0.0 1013313
12:00+27wnw424527 0.0 1012580
15:00+29nw54425 0.0 1010549
18:00+24nw78585 0.0 1009382
21:00+19nw68877 0.0 1010249
17 june, thu
thu1700:00+19nw69860 0.0 1010251
03:00+18nw358724 0.0 1010147
06:00+18nw34885 0.0 100998
09:00+21nnw336778 0.0 1010298
12:00+24nw66519 0.0 1010415
15:00+27nw774012 0.0 1008447
18:00+23nw910530 0.0 1007353
21:00+19nw711740 0.0 1008279
18 june, fri
fri1800:00+18nw710810 0.0 1008268
03:00+18nw58830 0.0 1008200
06:00+17nw45843 0.0 100895
09:00+21nw56610 0.0 1009324
12:00+25nw78460 0.0 1009439
15:00+26nw910400 0.0 1007432
18:00+23nw912520 0.0 1006373
21:00+19nnw812770 0.0 1007277
19 june, sat
sat1900:00+18nw812830 0.0 1008262
03:00+17nw610860 0.0 1007237
06:00+17nnw46911 0.0 1008123
09:00+21nw56670 0.0 1008319
12:00+25nw89490 0.0 1008423
15:00+26nw910460 0.0 1007453
18:00+23nw911570 0.0 1006390
21:00+19nnw712810 0.0 1007325
20 june, sun
sun2000:00+18nw510860 0.0 1009275
03:00+17nw47883 0.0 1008165
06:00+17nne349049 0.0 100952
09:00+20n11685 0.0 1010310
12:00+27wnw22385 0.0 1010829
15:00+29nw643597 0.0 1009701
18:00+24nw66525 0.0 1009433
21:00+19nw56775 0.0 1010267